Location: Cerroniocc
(13.7547°S, 72.0222°W)
Time: 22:40:36
(UTC+00:00)

Cosmos 1626 - Pass Details

Date: 05 July 2020
Orbit: 491 x 495 km, 82.5° (Epoch: 10 August)

Event Time Altitude Azimuth Distance (km) Brightness Sun altitude
Exits shadow 23:25:39 - 172° (S) 2,476 5.4 -12.7°
Reaches altitude 10° 23:27:36 10° 163° (SSE) 1,703 4.5 -13.1°
Maximum altitude 23:31:03 35° 96° (E) 809 2.7 -13.9°
Drops below altitude 10° 23:34:28 10° 28° (NNE) 1,685 4.7 -14.7°
Sets 23:36:40 0° 19° (NNE) 2,560 5.8 -15.2°
